Location: ????????
(55.4000°N, 39.1167°E)
Time: 06:53:11
(UTC+00:00)

USA 229 - Pass Details

Date: 19 May 2025
Orbit: 872 x 1339 km, 63.4° (Epoch: 20 June)

Event Time Altitude Azimuth Distance (km) Brightness Sun altitude
Exits shadow 23:20:50 - 254° (WSW) 3,491 6.0 -10.4°
Reaches altitude 10° 23:23:00 10° 258° (WSW) 2,723 5.5 -10.2°
Maximum altitude 23:29:18 57° 337° (NNW) 1,233 4.3 -9.8°
Drops below altitude 10° 23:36:25 10° 55° (NE) 3,059 7.3 -9.2°
Sets 23:39:23 0° 60° (ENE) 4,093 8.0 -9.0°
